Weather History for Crestview, FL

Change the Weather History Date:

Friday, August 23, 2013

  Actual Average Record
Temperature  
Mean Temperature 76 °F -  
Max Temperature 83 °F - - ()
Min Temperature 70 °F - - ()
Cooling Degree Days 12    
Growing Degree Days 26 (Base 50)    
Moisture  
Dew Point 73 °F    
Average Humidity 90    
Maximum Humidity 100    
Minimum Humidity 69    
Precipitation  
Precipitation 0.30 in - - ()
Sea Level Pressure  
Sea Level Pressure 30.02 in    
Wind  
Wind Speed 5 mph (ENE)    
Max Wind Speed 26 mph    
Max Gust Speed 37 mph    
Visibility 9 miles    
Events Rain , Thunderstorm    
T = Trace of Precipitation, MM = Missing Value Source: NWS Daily Summary

Daily Weather History Graph

Daily Weather History Graph

Search for Another Location

Airport:

Trip Planner

Search our weather history database for the weather conditions in past years. The results will help you decide how hot, cold, wet, or windy it might be!

Date:

Astronomy

Aug. 23, 2013 Rise Set
Actual Time 6:17 AM CDT 7:19 PM CDT
Civil Twilight 5:52 AM CDT 7:44 PM CDT
Nautical Twilight 5:23 AM CDT 8:13 PM CDT
Astronomical Twilight 4:52 AM CDT 8:43 PM CDT
Moon 8:56 PM CDT (8/23) 8:56 AM CDT (8/23)
Length of Visible Light 13h 51m
Length of Day
13h 01m
Waning Gibbous, 91% of the Moon is Illuminated
Aug 23
Waning Gibbous
Aug 28
Last Quarter
Sep 5
New
Sep 12
First Quarter
Sep 19
Full

Hourly Weather History & Observations

Time (CDT) Temp. Heat Index Dew Point Humidity Pressure Visibility Wind Dir Wind Speed Gust Speed Precip Events Conditions
12:58 AM 73.4 °F - 73.0 °F 99% 30.04 in 10.0 mi North 2.3 mph - N/A   Clear
1:58 AM 72.0 °F - 71.6 °F 99% 30.02 in 10.0 mi NNE 2.3 mph - N/A   Clear
2:58 AM 71.4 °F - 71.1 °F 99% 30.01 in 10.0 mi ENE 1.2 mph - N/A   Clear
3:58 AM 71.4 °F - 71.2 °F 99% 30.01 in 10.0 mi ENE 4.6 mph - N/A   Clear
4:58 AM 70.9 °F - 70.7 °F 99% 30.01 in 10.0 mi NE 4.6 mph - N/A   Clear
5:58 AM 70.5 °F - 70.2 °F 99% 30.01 in 10.0 mi NE 3.5 mph - N/A   Clear
6:58 AM 71.2 °F - 70.9 °F 99% 30.03 in 10.0 mi Variable 2.3 mph - N/A   Scattered Clouds
7:58 AM 73.4 °F - 73.2 °F 99% 30.03 in 10.0 mi NE 6.9 mph - N/A   Clear
8:55 AM 76.8 °F - 72.9 °F 88% 30.04 in 10.0 mi North 4.6 mph - N/A   Mostly Cloudy
9:55 AM 78.3 °F - 74.1 °F 87% 30.04 in 10.0 mi North 6.9 mph - N/A   Mostly Cloudy
10:55 AM 80.4 °F 85.3 °F 74.1 °F 81% 30.06 in 10.0 mi North 5.8 mph - N/A   Mostly Cloudy
11:55 AM 82.8 °F 88.4 °F 72.9 °F 72% 30.04 in 10.0 mi NNE 5.8 mph - N/A   Mostly Cloudy
12:55 PM 83.1 °F 88.4 °F 72.0 °F 69% 30.01 in 10.0 mi ENE 5.8 mph - N/A   Mostly Cloudy
1:55 PM 82.8 °F 87.7 °F 71.8 °F 69% 30.03 in 10.0 mi ESE 4.6 mph - N/A   Mostly Cloudy
2:55 PM 82.6 °F 87.8 °F 72.3 °F 71% 30.03 in 10.0 mi East 4.6 mph - N/A   Mostly Cloudy
3:55 PM 82.4 °F 88.4 °F 73.6 °F 75% 30.01 in 10.0 mi ESE 4.6 mph - N/A   Mostly Cloudy
4:18 PM 82.4 °F 88.2 °F 73.4 °F 74% 30.01 in 10.0 mi ESE 4.6 mph - N/A Rain , Thunderstorm Light Thunderstorms and Rain
4:29 PM 82.4 °F 88.2 °F 73.4 °F 74% 30.01 in 3.0 mi SSE 26.5 mph 36.8 mph N/A Rain , Thunderstorm Light Thunderstorms and Rain
4:32 PM 80.6 °F 85.4 °F 73.4 °F 79% 30.02 in 1.0 mi SSE 20.7 mph 36.8 mph N/A Rain , Thunderstorm Thunderstorms and Rain
4:44 PM 75.2 °F - 71.6 °F 89% 30.02 in 2.0 mi South 11.5 mph 24.2 mph N/A Rain , Thunderstorm Light Thunderstorms and Rain
4:55 PM 73.9 °F - 72.7 °F 96% 30.01 in 7.0 mi South 5.8 mph - 0.29 in Rain , Thunderstorm Light Thunderstorms and Rain
5:15 PM 73.4 °F - 73.4 °F 100% 29.99 in 10.0 mi WSW 5.8 mph - N/A   Light Drizzle
5:55 PM 73.8 °F - 73.4 °F 99% 29.97 in 10.0 mi North 4.6 mph - 0.01 in   Mostly Cloudy
6:55 PM 73.4 °F - 73.4 °F 100% 29.97 in 10.0 mi NE 5.8 mph - N/A   Mostly Cloudy
7:55 PM 73.6 °F - 73.2 °F 99% 30.00 in 10.0 mi North 3.5 mph - N/A   Mostly Cloudy
8:55 PM 73.2 °F - 72.9 °F 99% 30.01 in 10.0 mi ESE 5.8 mph - N/A   Mostly Cloudy
9:55 PM 72.9 °F - 72.5 °F 99% 30.04 in 10.0 mi NE 4.6 mph - N/A   Mostly Cloudy
10:55 PM 72.7 °F - 72.3 °F 99% 30.05 in 10.0 mi East 2.3 mph - N/A   Scattered Clouds
11:55 PM 72.7 °F - 72.3 °F 99% 30.05 in 10.0 mi East 1.2 mph - N/A   Scattered Clouds